Dublin, Ireland

8:54 AM IST on April 22, 2018 (GMT +0100)
Dublin International

Weather History for EIDW - September, 2012

Change the Weather History Date:

Thursday, September 20, 2012

  Actual Average Record
Temperature  
Mean Temperature 54 °F -  
Max Temperature 59 °F 59 °F 69 °F (1998)
Min Temperature 49 °F 47 °F 42 °F (2001)
Degree Days  
Heating Degree Days 11    
Growing Degree Days 4 (Base 50)    
Moisture  
Dew Point 50 °F    
Average Humidity 86    
Maximum Humidity 94    
Minimum Humidity 67    
Precipitation  
Precipitation 0.00 in 0.09 in - ()
Sea Level Pressure  
Sea Level Pressure 30.01 in    
Wind  
Wind Speed 10 mph ()    
Max Wind Speed 20 mph    
Max Gust Speed -    
Visibility 6.5 miles    
Events Rain    
Averages and records for this station are not official NWS values.
T = Trace of Precipitation, MM = Missing Value Source: Averaged Metar Reports

Daily Weather History Graph

Daily Weather History Graph

Search for Another Location

Airport or City:

Astronomy

Sep. 20, 2012 Rise Set
Actual Time 7:07 AM IST 7:27 PM IST
Civil Twilight 6:32 AM IST 8:02 PM IST
Nautical Twilight 5:51 AM IST 8:43 PM IST
Astronomical Twilight 5:07 AM IST 9:27 PM IST
Moon 1:01 PM IST (9/20) 9:25 PM IST (9/20)
Length of Visible Light 13h 29m
Length of Day
12h 19m
Waxing Crescent, 24% of the Moon is Illuminated
Sep 20
Waxing Crescent
Sep 22
First Quarter
Sep 30
Full
Oct 8
Last Quarter
Oct 15
New

Hourly Weather History & Observations

Time (IST) Temp. Dew Point Humidity Pressure Visibility Wind Dir Wind Speed Gust Speed Precip Events Conditions
12:00 AM 50.0 °F 48.2 °F 94% 30.12 in 6.2 mi WSW 6.9 mph - N/A   Mostly Cloudy
12:30 AM 50.0 °F 48.2 °F 94% 30.09 in 6.2 mi West 4.6 mph - N/A   Mostly Cloudy
1:00 AM 50 °F 48 °F 90% 30.12 in 12 mi SW 2.2 mph - -   Partly Cloudy
1:00 AM 50.0 °F 48.2 °F 94% 30.09 in 6.2 mi SW 1.2 mph - N/A   Mostly Cloudy
1:30 AM 50.0 °F 48.2 °F 94% 30.09 in 6.2 mi SE 3.5 mph - N/A   Mostly Cloudy
2:00 AM 50.0 °F 48.2 °F 94% 30.06 in 6.2 mi Variable 3.5 mph - N/A   Mostly Cloudy
2:30 AM 51.8 °F 48.2 °F 88% 30.06 in 6.2 mi SW 9.2 mph - N/A   Mostly Cloudy
3:00 AM 51.8 °F 48.2 °F 88% 30.06 in 6.2 mi SW 9.2 mph - N/A   Mostly Cloudy
3:30 AM 51.8 °F 48.2 °F 88% 30.04 in 6.2 mi WSW 10.4 mph - N/A   Mostly Cloudy
4:00 AM 51.8 °F 48.2 °F 88% 30.04 in 6.2 mi WSW 11.5 mph - N/A   Mostly Cloudy
4:30 AM 51.8 °F 48.2 °F 88% 30.04 in 6.2 mi WSW 11.5 mph - N/A   Scattered Clouds
5:30 AM 50.0 °F 48.2 °F 94% 30.01 in 6.2 mi WSW 12.7 mph - N/A   Mostly Cloudy
6:00 AM 51.8 °F 48.2 °F 88% 30.01 in 6.2 mi WSW 13.8 mph - N/A   Mostly Cloudy
6:30 AM 51.8 °F 50.0 °F 94% 30.01 in 6.2 mi WSW 15.0 mph - N/A Rain Light Rain
7:00 AM 51 °F 50 °F 94% 30.02 in 6 mi WSW 13.4 mph - - Rain Light Rain
7:00 AM 51.8 °F 50.0 °F 94% 30.01 in 5.6 mi WSW 13.8 mph - N/A Rain Light Rain
7:30 AM 51.8 °F 50.0 °F 94% 30.01 in 2.5 mi WSW 13.8 mph - N/A   Light Drizzle
8:00 AM 51.8 °F 50.0 °F 94% 30.01 in 6.2 mi WSW 13.8 mph - N/A   Mostly Cloudy
8:30 AM 51.8 °F 50.0 °F 94% 30.01 in 6.2 mi WSW 15.0 mph - N/A   Mostly Cloudy
9:00 AM 53.6 °F 50.0 °F 88% 30.01 in 6.2 mi WSW 15.0 mph - N/A   Mostly Cloudy
9:30 AM 53.6 °F 51.8 °F 94% 30.04 in 6.2 mi WSW 19.6 mph - N/A   Light Drizzle
10:00 AM 53.6 °F 50.0 °F 88% 30.04 in 6.2 mi West 12.7 mph - N/A   Mostly Cloudy
10:30 AM 53.6 °F 51.8 °F 94% 30.04 in 6.2 mi WSW 11.5 mph - N/A   Mostly Cloudy
11:00 AM 55.4 °F 51.8 °F 88% 30.01 in 6.2 mi WSW 10.4 mph - N/A   Mostly Cloudy
11:30 AM 55.4 °F 51.8 °F 88% 30.01 in 6.2 mi WSW 13.8 mph - N/A   Mostly Cloudy
12:00 PM 57.2 °F 50.0 °F 77% 30.01 in 6.2 mi WSW 15.0 mph - N/A   Mostly Cloudy
12:30 PM 59.0 °F 51.8 °F 77% 30.01 in 6.2 mi WSW 18.4 mph - N/A   Mostly Cloudy
1:00 PM 58 °F 50 °F 67% 30.01 in 28 mi WSW 15.7 mph - -   Partly Cloudy
1:00 PM 59.0 °F 50.0 °F 72% 30.01 in 6.2 mi WSW 15.0 mph - N/A   Mostly Cloudy
1:30 PM 59.0 °F 50.0 °F 72% 30.01 in 6.2 mi WSW 18.4 mph - N/A   Mostly Cloudy
2:00 PM 57.2 °F 50.0 °F 77% 30.01 in 6.2 mi WSW 17.3 mph - N/A   Mostly Cloudy
2:30 PM 59.0 °F 50.0 °F 72% 29.98 in 6.2 mi SW 16.1 mph - N/A   Mostly Cloudy
3:00 PM 59.0 °F 50.0 °F 72% 29.98 in 6.2 mi WSW 19.6 mph - N/A   Mostly Cloudy
3:30 PM 57.2 °F 50.0 °F 77% 29.98 in 6.2 mi WSW 16.1 mph - N/A   Mostly Cloudy
4:00 PM 57.2 °F 50.0 °F 77% 29.98 in 6.2 mi WSW 17.3 mph - N/A   Mostly Cloudy
4:30 PM 57.2 °F 50.0 °F 77% 29.98 in 6.2 mi WSW 13.8 mph - N/A   Mostly Cloudy
5:00 PM 55.4 °F 51.8 °F 88% 29.98 in 6.2 mi WSW 18.4 mph - N/A Rain Light Rain
5:30 PM 57.2 °F 51.8 °F 82% 29.95 in 6.2 mi WSW 15.0 mph - N/A   Mostly Cloudy
6:00 PM 57.2 °F 51.8 °F 82% 29.98 in 6.2 mi WSW 16.1 mph - N/A   Mostly Cloudy
6:30 PM 57.2 °F 51.8 °F 82% 29.98 in 6.2 mi WSW 17.3 mph - N/A   Mostly Cloudy
7:00 PM 54 °F 51 °F 86% 29.99 in 19 mi West 17.9 mph - - Rain Light Rain
7:00 PM 55.4 °F 51.8 °F 88% 29.98 in 6.2 mi West 18.4 mph - N/A   Mostly Cloudy
7:30 PM 55.4 °F 51.8 °F 88% 29.98 in 6.2 mi WSW 15.0 mph - N/A   Mostly Cloudy
8:00 PM 55.4 °F 50.0 °F 82% 29.98 in 6.2 mi WSW 15.0 mph - N/A   Mostly Cloudy
8:30 PM 55.4 °F 50.0 °F 82% 29.98 in 6.2 mi WSW 13.8 mph - N/A   Mostly Cloudy
9:00 PM 55.4 °F 50.0 °F 82% 29.98 in 6.2 mi WSW 15.0 mph - N/A   Mostly Cloudy
9:30 PM 53.6 °F 50.0 °F 88% 29.98 in 6.2 mi WSW 15.0 mph - N/A   Mostly Cloudy
10:00 PM 53.6 °F 50.0 °F 88% 29.98 in 6.2 mi WSW 16.1 mph - N/A   Mostly Cloudy
10:30 PM 53.6 °F 50.0 °F 88% 29.98 in 6.2 mi West 15.0 mph - N/A   Mostly Cloudy
11:00 PM 53.6 °F 50.0 °F 88% 29.98 in 6.2 mi West 17.3 mph - N/A   Mostly Cloudy
11:30 PM 53.6 °F 51.8 °F 94% 29.98 in 6.2 mi West 15.0 mph - N/A   Light Drizzle